When you browse on this site, cookies collect data to enhance your experience and personalize the content and advertising you see.
Visit our Privacy Policy to learn more. By continuing to use the site, you agree to this use of cookies and data.
EN

Hourly Weather Gojsk

Today, 22 September, Tuesday

Time Temperature Precipitation Wind Pressure Humidity
00:00 +14°C° 0 mm 2 mps 751 mmHg 63%
01:00 +14°C° 0 mm 2 mps 751 mmHg 63%
02:00 +14°C° 0 mm 2 mps 751 mmHg 64%
03:00 +14°C° 0 mm 2 mps 751 mmHg 65%
04:00 +14°C° 0 mm 2 mps 751 mmHg 66%
05:00 +14°C° 0 mm 2 mps 751 mmHg 65%
06:00 +15°C° 0 mm 2 mps 751 mmHg 65%
07:00 +16°C° 0 mm 3 mps 751 mmHg 63%
08:00 +18°C° 0 mm 3 mps 751 mmHg 57%
09:00 +20°C° 0 mm 3 mps 750 mmHg 51%
10:00 +22°C° 0 mm 4 mps 750 mmHg 45%
11:00 +25°C° 0 mm 4 mps 750 mmHg 42%
12:00 +26°C° 0 mm 5 mps 750 mmHg 38%
13:00 +27°C° 0 mm 5 mps 749 mmHg 35%
14:00 +27°C° 0 mm 5 mps 749 mmHg 37%
15:00 +26°C° 0 mm 4 mps 748 mmHg 39%
16:00 +26°C° 0 mm 3 mps 748 mmHg 41%
17:00 +24°C° 0 mm 3 mps 748 mmHg 46%
18:00 +21°C° 0 mm 3 mps 748 mmHg 51%
19:00 +19°C° 0 mm 3 mps 748 mmHg 56%
20:00 +19°C° 0 mm 3 mps 747 mmHg 58%
21:00 +18°C° 0 mm 3 mps 747 mmHg 61%
22:00 +18°C° 0 mm 3 mps 747 mmHg 63%
23:00 +17°C° 0 mm 3 mps 747 mmHg 63%

Tomorrow, 23 September, Wednesday

Time Temperature Precipitation Wind Pressure Humidity
00:00 +17°C° 0 mm 3 mps 747 mmHg 63%
01:00 +17°C° 0 mm 3 mps 747 mmHg 64%
02:00 +16°C° 0 mm 3 mps 746 mmHg 64%
03:00 +16°C° 0 mm 3 mps 746 mmHg 64%
04:00 +16°C° 0 mm 3 mps 746 mmHg 64%
05:00 +16°C° 0 mm 3 mps 746 mmHg 63%
06:00 +16°C° 0 mm 3 mps 745 mmHg 62%
07:00 +17°C° 0 mm 3 mps 745 mmHg 62%
08:00 +19°C° 0 mm 3 mps 745 mmHg 56%
09:00 +21°C° 0 mm 3 mps 745 mmHg 50%
10:00 +25°C° 0 mm 4 mps 745 mmHg 45%
11:00 +26°C° 0 mm 4 mps 745 mmHg 42%
12:00 +27°C° 0 mm 4 mps 745 mmHg 39%
13:00 +28°C° 0 mm 4 mps 744 mmHg 36%
14:00 +28°C° 0 mm 4 mps 744 mmHg 39%
15:00 +27°C° 0 mm 3 mps 744 mmHg 42%
16:00 +27°C° 0 mm 3 mps 744 mmHg 45%
17:00 +25°C° 0 mm 3 mps 744 mmHg 52%
18:00 +22°C° 0 mm 3 mps 744 mmHg 58%
19:00 +20°C° 0 mm 3 mps 744 mmHg 65%
20:00 +20°C° 0 mm 3 mps 744 mmHg 67%
21:00 +19°C° 0 mm 2 mps 744 mmHg 69%
22:00 +18°C° 0 mm 2 mps 744 mmHg 71%
23:00 +18°C° 0 mm 2 mps 744 mmHg 73%

Day after tomorrow, 24 September, Thursday

Time Temperature Precipitation Wind Pressure Humidity
00:00 +18°C° 0 mm 2 mps 744 mmHg 74%
01:00 +18°C° 0 mm 2 mps 744 mmHg 75%
02:00 +17°C° 0 mm 2 mps 744 mmHg 77%
03:00 +17°C° 0 mm 2 mps 744 mmHg 79%
04:00 +16°C° 0 mm 2 mps 743 mmHg 81%
05:00 +17°C° 0 mm 3 mps 744 mmHg 81%
06:00 +17°C° 0 mm 3 mps 744 mmHg 81%
07:00 +17°C° 0 mm 3 mps 744 mmHg 81%
08:00 +19°C° 0 mm 3 mps 744 mmHg 74%
09:00 +21°C° 0 mm 3 mps 744 mmHg 67%
10:00 +24°C° 0 mm 3 mps 744 mmHg 60%
11:00 +25°C° 0 mm 3 mps 744 mmHg 57%
12:00 +26°C° 0 mm 3 mps 744 mmHg 53%
13:00 +27°C° 0 mm 3 mps 744 mmHg 50%
14:00 +26°C° 0.1 mm 3 mps 744 mmHg 51%
15:00 +26°C° 0.1 mm 3 mps 744 mmHg 53%
16:00 +25°C° 0.1 mm 2 mps 743 mmHg 55%
17:00 +24°C° 0.3 mm 2 mps 743 mmHg 59%
18:00 +21°C° 0.3 mm 2 mps 743 mmHg 64%
19:00 +21°C° 0.3 mm 1 mps 743 mmHg 68%
20:00 +20°C° 0 mm 1 mps 743 mmHg 70%
21:00 +19°C° 0 mm 2 mps 743 mmHg 72%
22:00 +18°C° 0 mm 2 mps 743 mmHg 74%
23:00 +18°C° 0 mm 2 mps 743 mmHg 75%

25 September, Friday

Time Temperature Precipitation Wind Pressure Humidity
00:00 +17°C° 0 mm 2 mps 743 mmHg 75%
01:00 +17°C° 0 mm 2 mps 743 mmHg 75%
02:00 +16°C° 0 mm 2 mps 742 mmHg 76%
03:00 +16°C° 0 mm 2 mps 742 mmHg 78%
04:00 +16°C° 0 mm 2 mps 742 mmHg 80%
05:00 +16°C° 0 mm 3 mps 741 mmHg 79%
06:00 +17°C° 0 mm 3 mps 741 mmHg 78%
07:00 +17°C° 0 mm 4 mps 740 mmHg 77%
08:00 +19°C° 0 mm 5 mps 740 mmHg 71%
09:00 +21°C° 0 mm 5 mps 739 mmHg 65%
10:00 +22°C° 0 mm 6 mps 739 mmHg 59%
11:00 +23°C° 0 mm 7 mps 738 mmHg 57%
12:00 +24°C° 0 mm 7 mps 737 mmHg 54%
13:00 +26°C° 0 mm 8 mps 737 mmHg 52%
14:00 +26°C° 0 mm 7 mps 736 mmHg 52%
15:00 +26°C° 0 mm 6 mps 736 mmHg 52%
16:00 +25°C° 0 mm 5 mps 735 mmHg 53%
17:00 +22°C° 1.1 mm 5 mps 735 mmHg 62%
18:00 +20°C° 1.1 mm 5 mps 736 mmHg 72%
19:00 +17°C° 1.1 mm 6 mps 736 mmHg 82%
20:00 +17°C° 0 mm 5 mps 736 mmHg 83%
21:00 +17°C° 0 mm 5 mps 736 mmHg 83%
22:00 +16°C° 0 mm 5 mps 736 mmHg 83%
23:00 +15°C° 0 mm 4 mps 737 mmHg 85%

26 September, Saturday

Time Temperature Precipitation Wind Pressure Humidity
00:00 +15°C° 0 mm 2 mps 737 mmHg 87%
01:00 +14°C° 0 mm 1 mps 737 mmHg 89%
02:00 +14°C° 0 mm 2 mps 737 mmHg 89%
03:00 +14°C° 0 mm 2 mps 736 mmHg 89%
04:00 +13°C° 0 mm 3 mps 736 mmHg 89%
05:00 +13°C° 0.7 mm 3 mps 736 mmHg 90%
06:00 +14°C° 0.7 mm 4 mps 735 mmHg 91%
07:00 +14°C° 0.7 mm 5 mps 735 mmHg 92%
08:00 +15°C° 0.3 mm 5 mps 734 mmHg 88%
09:00 +16°C° 0.3 mm 5 mps 734 mmHg 84%
10:00 +17°C° 0.3 mm 5 mps 734 mmHg 80%
11:00 +19°C° 0 mm 5 mps 734 mmHg 79%
12:00 +19°C° 0 mm 5 mps 734 mmHg 78%
13:00 +19°C° 0 mm 5 mps 734 mmHg 77%
14:00 +19°C° 0.1 mm 5 mps 734 mmHg 80%
15:00 +17°C° 0.1 mm 5 mps 735 mmHg 83%
16:00 +18°C° 0.1 mm 4 mps 735 mmHg 86%
17:00 +18°C° 0.1 mm 4 mps 735 mmHg 88%
18:00 +17°C° 0.1 mm 3 mps 735 mmHg 90%
19:00 +17°C° 0.1 mm 2 mps 735 mmHg 92%
20:00 +17°C° 0 mm 2 mps 736 mmHg 92%
21:00 +18°C° 0 mm 1 mps 736 mmHg 92%
22:00 +18°C° 0 mm 1 mps 736 mmHg 92%
23:00 +17°C° 0.6 mm 2 mps 735 mmHg 92%

27 September, Sunday

Time Temperature Precipitation Wind Pressure Humidity
00:00 +17°C° 0.6 mm 3 mps 735 mmHg 91%
01:00 +16°C° 0.6 mm 5 mps 734 mmHg 91%
02:00 +17°C° 0.1 mm 6 mps 734 mmHg 87%
03:00 +17°C° 0.1 mm 7 mps 733 mmHg 82%
04:00 +17°C° 0.1 mm 8 mps 733 mmHg 77%
05:00 +17°C° 0.3 mm 8 mps 733 mmHg 78%
06:00 +17°C° 0.3 mm 8 mps 733 mmHg 79%
07:00 +17°C° 0.3 mm 8 mps 733 mmHg 79%
08:00 +17°C° 0 mm 8 mps 733 mmHg 78%
09:00 +18°C° 0 mm 8 mps 734 mmHg 76%
10:00 +18°C° 0 mm 9 mps 734 mmHg 75%
11:00 +18°C° 0.1 mm 9 mps 734 mmHg 75%
12:00 +18°C° 0.1 mm 9 mps 735 mmHg 75%
13:00 +17°C° 0.1 mm 9 mps 735 mmHg 75%
14:00 +17°C° 0.2 mm 8 mps 735 mmHg 77%
15:00 +16°C° 0.2 mm 8 mps 735 mmHg 79%
16:00 +16°C° 0.2 mm 8 mps 736 mmHg 81%
17:00 +15°C° 0.4 mm 7 mps 736 mmHg 83%
18:00 +15°C° 0.4 mm 5 mps 736 mmHg 85%
19:00 +14°C° 0.4 mm 4 mps 737 mmHg 87%
20:00 +13°C° 0 mm 4 mps 737 mmHg 86%
21:00 +13°C° 0 mm 4 mps 737 mmHg 86%
22:00 +12°C° 0 mm 4 mps 737 mmHg 85%
23:00 +11°C° 0 mm 4 mps 738 mmHg 85%
Show more